Airfield :







YOU CAN JOIN US ON...

 
LOGIN :

Register | Disclaimer

   EN    FR    IT 

 









Legend :    VFR   Marginal VFR   IFR   Intensive IFR   Very Intensive IFR
Visi :
Ceiling :
>= 8 km
>= 3000ft
5 to 8 km
1000 to 3000 ft
1500m to 5 km
500 to 1000 ft
800 to 1500m
200 to 500 ft
< 800m
< 200 ft
Symbols :   Thunderstorms  Fog  Heavy snow  Heavy precipitations  Wind > 20 kt







- Airport Elevation : 6 ft
- IATA code : AEY


BIAR - Akureyri

CURRENT METAR :
  • 250100Z 19012KT CAVOK 12/05 Q1026

EXPIRED METARs :
  • 250000Z 17009KT CAVOK 12/05 Q1026
  • 242300Z VRB03KT 9999 SCT052 12/05 Q1026

TAF TAF BIAR
Valid from the 25 at 00:00 until the 26 at 00:00 UTC


242211Z 2500/2600 23008KT 9999 BKN050 TX18/2517Z TN10/2503Z
BECMG 2508/2511 25018KT
No reported NOTAMs for that airfield.



MET'MAP, your aeronautical weather chart ! - Copyright ORBIFLY December 2007 - Disclaimer

ORBIFLY MET'MAP TEAM :

Programming & Development : Alexandra Zaïnal
Concept & Development : Baudouin d'Aumeries
Co-Development & Prog : Marc-Olivier Méhu
Technical & hardware support : Manuel Goepfert

Contact : metmap@orbifly.com




SOURCES & CREDITS :

   NOAA